Location: Cuiry
(49.3858°N, 3.7708°E)
Time: 05:47:09
(UTC+00:00)

UNK - Pass Details

Date: 20 April 2026
Orbit: 653 x 673 km, 98.4° (Epoch: 15 May)

Event Time Altitude Azimuth Distance (km) Brightness Sun altitude
Rises 04:04:02 0° 159° (SSE) 3,008 7.0 -6.8°
Reaches altitude 10° 04:06:15 10° 158° (SSE) 2,097 6.2 -6.4°
Maximum altitude 04:10:49 77° 74° (ENE) 693 4.0 -5.8°
Drops below altitude 10° 04:15:25 10° 348° (NNW) 2,104 6.5 -5.1°
Sets 04:17:39 0° 347° (NNW) 3,018 7.2 -4.8°
